Location: Culleoka
(33.1312°N, 96.4919°W)
Time: 22:26:22
(UTC+00:00)

Lacrosse 5 rocket - Pass Details

Date: 04 July 2022
Orbit: 456 x 628 km, 57.0° (Epoch: 08 August)

Event Time Altitude Azimuth Distance (km) Brightness Sun altitude
Rises 02:53:41 0° 327° (NNW) 2,594 6.3 -13.8°
Reaches altitude 10° 02:55:52 10° 332° (NNW) 1,735 5.0 -14.2°
Maximum altitude 02:59:41 50° 49° (NE) 680 1.7 -14.8°
Enters shadow 03:01:40 26° 113° (ESE) 1,083 2.3 -15.1°
